Location: Ku?niki
(51.4449°N, 17.8974°E)
Time: 10:59:31
(UTC+00:00)

Lacrosse 5 rocket - Pass Details

Date: 18 September 2020
Orbit: 460 x 636 km, 57.0° (Epoch: 25 October)

Event Time Altitude Azimuth Distance (km) Brightness Sun altitude
Rises 19:48:14 0° 285° (WNW) 2,808 6.0 -25.6°
Reaches altitude 10° 19:50:34 10° 293° (WNW) 1,935 5.0 -25.9°
Maximum altitude 19:54:46 41° 4° (N) 903 2.6 -26.4°
Enters shadow 19:55:09 40° 18° (NNE) 919 2.5 -26.4°
